[[{"header":{"parameterUnit":"m.s-1","parameterCategory":1,"la1":30.2991,"la2":30.254,"lo1":-89.0895,"lo2":-89.0444,"dy":0.0017,"dx":0.0017,"nx":28,"ny":28,"refTime":"2023-11-05T09:00:00:Z","depth":0,"parameterNumber":2,"parameterNumberName":"U-component_of_WINDS"},"data":[0,0,0,0,0,0,0,0,0,0,0,0,0,0,0,0,0,0,0,0,0,0,0,0,0,0,0,0,0,0,0,0,0,0,0,0,0,0,0,0,0,0,0,0,0,0,0,0,0,0,0,0,0,0,0,0,0,0,-0.4699,-0.4699,0,-0.475,-0.4751,-0.4752,-0.4761,-0.476,-0.476,-0.476,-0.4812,-0.4814,-0.4815,0,0,0,0,0,0,0,0,0,0,0,0,0,-0.4608,-0.4609,-0.4699,-0.4699,-0.47,-0.475,-0.4751,-0.4752,-0.4761,-0.476,-0.476,-0.4759,-0.4811,-0.4813,-0.4815,0,0,0,0,0,0,0,0,0,0,0,0,0,-0.4652,-0.461,-0.4699,-0.4711,-0.4712,-0.475,-0.4751,-0.4752,-0.4761,-0.476,-0.476,-0.4759,-0.4811,-0.4813,-0.4816,-0.4845,0,0,-0.4824,-0.4825,0,0,0,0,0,0,0,0,-0.465,-0.4655,-0.4708,-0.471,-0.4712,-0.4749,-0.4738,-0.4783,-0.4761,-0.4743,-0.476,-0.4759,-0.4791,-0.4795,-0.4807,-0.4848,-0.485,-0.4824,-0.4826,-0.4827,-0.4828,0,0,0,0,0,0,0,-0.4646,-0.4653,-0.4719,-0.4709,-0.4711,-0.4713,-0.4719,-0.4747,-0.477,-0.4744,-0.4745,-0.4751,-0.4792,-0.4804,-0.4808,-0.4851,-0.4824,-0.4827,-0.4828,-0.4829,-0.4919,-0.4919,0,0,0,0,0,0,-0.4641,-0.4651,-0.4718,-0.4721,-0.4678,-0.4716,-0.4722,-0.4737,-0.477,-0.4774,-0.4751,-0.4751,-0.48,-0.4805,-0.481,-0.4847,-0.4827,-0.483,-0.4831,-0.4918,-0.4919,-0.492,0,0,0,0,0,0,-0.4639,-0.4647,-0.4716,-0.4686,-0.4695,-0.4718,-0.4735,-0.4739,-0.4751,-0.4775,-0.4779,-0.4759,-0.4799,-0.4806,-0.4836,-0.4848,-0.4831,-0.4833,-0.4917,-0.4918,-0.4919,-0.492,0,0,0,0,0,0,-0.4637,-0.4646,-0.4658,-0.4686,-0.4696,-0.4742,-0.4736,-0.474,-0.4755,-0.4755,-0.4784,-0.4788,-0.4799,-0.4832,-0.4839,-0.4852,-0.4835,-0.4916,-0.4917,-0.4919,-0.4919,-0.4921,-0.4923,0,0,0,0,0,-0.4633,-0.4656,-0.4658,-0.4667,-0.4711,-0.4742,-0.4748,-0.4761,-0.4756,-0.4768,-0.4784,-0.4787,-0.4846,-0.4835,-0.4843,-0.4857,-0.4915,-0.4917,-0.4919,-0.4918,-0.4921,-0.4923,0,0,0,0,0,0,-0.4628,-0.466,-0.4663,-0.4695,-0.4716,-0.4744,-0.4759,-0.4763,-0.4786,-0.4785,-0.48,-0.4806,-0.4836,-0.4849,-0.4837,-0.4887,-0.488,-0.4884,-0.4877,-0.488,-0.4882,-0.4878,-0.4837,0,0,0,0,0,-0.4631,-0.4654,-0.468,-0.4706,-0.4716,-0.4736,-0.475,-0.4758,-0.478,-0.4789,-0.4807,-0.4828,-0.4851,-0.4866,-0.4889,-0.4921,-0.4927,-0.4934,-0.4936,-0.4937,-0.494,-0.4958,-0.4962,-0.4925,-0.4925,-0.4925,0,0,-0.4637,-0.4657,-0.467,-0.4705,-0.4722,-0.4745,-0.4743,-0.4767,-0.4785,-0.4792,-0.4822,-0.4836,-0.4861,-0.4892,-0.4907,-0.4904,-0.4952,-0.494,-0.4941,-0.4943,-0.4961,-0.4964,-0.4967,-0.4926,-0.4926,-0.4926,0,0,-0.4659,-0.4676,-0.47,-0.4717,-0.4743,-0.4756,-0.4762,-0.4789,-0.4798,-0.4829,-0.4835,-0.4856,-0.4895,-0.4913,-0.4927,-0.4956,-0.4959,-0.4963,-0.4973,-0.499,-0.4993,-0.4996,-0.5006,-0.501,-0.4965,-0.4965,-0.4965,0,-0.4663,-0.4698,-0.4712,-0.4736,-0.4752,-0.476,-0.4784,-0.48,-0.4832,-0.4842,-0.4839,-0.4889,-0.4906,-0.4942,-0.4949,-0.496,-0.4967,-0.496,-0.4991,-0.4994,-0.4997,-0.5007,-0.5011,-0.4965,-0.4965,-0.4965,-0.4965,0,-0.4702,-0.4726,-0.4742,-0.4773,-0.479,-0.4814,-0.4831,-0.4847,-0.4854,-0.4867,-0.4898,-0.4919,-0.4946,-0.4955,-0.4962,-0.4992,-0.4989,-0.4988,-0.4982,-0.5,-0.501,-0.5014,-0.4966,-0.4966,-0.4966,-0.4966,0,0,-0.4722,-0.4761,-0.4766,-0.4781,-0.481,-0.4829,-0.4853,-0.488,-0.4893,-0.4915,-0.4936,-0.4969,-0.4969,-0.4985,-0.4994,-0.5009,-0.5031,-0.5006,-0.5007,-0.501,-0.5065,-0.5066,-0.507,-0.5033,-0.5034,-0.5035,-0.5063,0,-0.4748,-0.4793,-0.4806,-0.4843,-0.4865,-0.4874,-0.4895,-0.4915,-0.4928,-0.4949,-0.4963,-0.4987,-0.4984,-0.4994,-0.5009,-0.5025,-0.5042,-0.5023,-0.5053,-0.5054,-0.5047,-0.5076,-0.5076,-0.5102,-0.5067,-0.5068,-0.5068,0,-0.4785,-0.4807,-0.4847,-0.4873,-0.4883,-0.4902,-0.4928,-0.4948,-0.4971,-0.4979,-0.4997,-0.5005,-0.503,-0.5022,-0.5058,-0.5044,-0.5057,-0.5067,-0.5068,-0.5072,-0.5062,-0.508,-0.5111,-0.5115,-0.5075,-0.5074,-0.5074,0,-0.4796,-0.4837,-0.4866,-0.4877,-0.4909,-0.4922,-0.4936,-0.4958,-0.4974,-0.4996,-0.5006,-0.5031,-0.5045,-0.5064,-0.5078,-0.5071,-0.5113,-0.5106,-0.512,-0.512,-0.5129,-0.5128,-0.5163,-0.5137,-0.5137,-0.5137,-0.5136,0,-0.4824,-0.4848,-0.4871,-0.4889,-0.4916,-0.4931,-0.4957,-0.4971,-0.4991,-0.5011,-0.502,-0.5039,-0.5056,-0.5077,-0.5088,-0.5116,-0.5122,-0.513,-0.5133,-0.5129,-0.5128,-0.5138,-0.5137,-0.5138,-0.5137,-0.5137,-0.5137,0,-0.4842,-0.4858,-0.489,-0.4918,-0.4925,-0.4944,-0.4967,-0.4985,-0.4998,-0.5024,-0.5031,-0.5051,-0.5077,-0.5093,-0.5125,-0.5133,-0.5163,-0.5165,-0.5156,-0.5157,-0.5171,-0.517,-0.5213,-0.522,-0.5189,-0.5189,-0.519,0,-0.4859,-0.4877,-0.4907,-0.4921,-0.4935,-0.4958,-0.4974,-0.4989,-0.5006,-0.5033,-0.5047,-0.5074,-0.5095,-0.5136,-0.5154,-0.5178,-0.5181,-0.5195,-0.5185,-0.5181,-0.5182,-0.5181,-0.5183,-0.5196,-0.5197,-0.5197,-0.5197,0,-0.4887,-0.4894,-0.4917,-0.4943,-0.4961,-0.4982,-0.5003,-0.5014,-0.5033,-0.5051,-0.5077,-0.5094,-0.5127,-0.5153,-0.518,-0.5193,-0.5198,-0.52,-0.5205,-0.5202,-0.5196,-0.5199,-0.5161,-0.5199,-0.5199,-0.5199,-0.5198,-0.5198,-0.4905,-0.4922,-0.4946,-0.4971,-0.4988,-0.5007,-0.5025,-0.5041,-0.5063,-0.5091,-0.5099,-0.5127,-0.5149,-0.5185,-0.52,-0.5221,-0.5219,-0.5226,-0.5228,-0.523,-0.523,-0.5192,-0.5226,-0.5226,-0.5226,-0.5226,-0.5226,0,-0.4934,-0.495,-0.4972,-0.5001,-0.5021,-0.5024,-0.5047,-0.5064,-0.5088,-0.5109,-0.513,-0.5161,-0.5186,-0.5206,-0.5231,-0.5245,-0.5248,-0.5251,-0.5251,-0.5254,-0.523,-0.5224,-0.5249,-0.5249,-0.5248,-0.5248,-0.5248,-0.5248,-0.4951,-0.4981,-0.4991,-0.5028,-0.5044,-0.5071,-0.5084,-0.5102,-0.5119,-0.5152,-0.5173,-0.5186,-0.5207,-0.5234,-0.5257,-0.5262,-0.5272,-0.5275,-0.528,-0.5258,-0.5255,-0.5253,-0.5247,-0.5276,-0.5276,-0.5302,-0.5302,-0.5303]},{"header":{"parameterUnit":"m.s-1","parameterCategory":1,"la1":30.2991,"la2":30.254,"lo1":-89.0895,"lo2":-89.0444,"dy":0.0017,"dx":0.0017,"nx":28,"ny":28,"refTime":"2023-11-05T09:00:00:Z","depth":0,"parameterNumber":3,"parameterNumberName":"V-component_of_WINDS"},"data":[0,0,0,0,0,0,0,0,0,0,0,0,0,0,0,0,0,0,0,0,0,0,0,0,0,0,0,0,0,0,0,0,0,0,0,0,0,0,0,0,0,0,0,0,0,0,0,0,0,0,0,0,0,0,0,0,0,0,-2.8075,-2.8076,0,-2.8149,-2.815,-2.8151,-2.8131,-2.813,-2.8128,-2.8127,-2.8199,-2.8202,-2.8206,0,0,0,0,0,0,0,0,0,0,0,0,0,-2.7915,-2.7918,-2.8075,-2.8076,-2.8077,-2.8149,-2.815,-2.8151,-2.8131,-2.8129,-2.8128,-2.8126,-2.8198,-2.8202,-2.8206,0,0,0,0,0,0,0,0,0,0,0,0,0,-2.7986,-2.7919,-2.8075,-2.8076,-2.8077,-2.8149,-2.815,-2.8151,-2.8132,-2.8129,-2.8127,-2.8125,-2.8197,-2.8201,-2.8206,-2.8281,0,0,-2.8221,-2.8224,0,0,0,0,0,0,0,0,-2.7982,-2.7992,-2.8075,-2.8076,-2.8077,-2.8129,-2.812,-2.8195,-2.8132,-2.8111,-2.8127,-2.8124,-2.8177,-2.8184,-2.8202,-2.8285,-2.8288,-2.8222,-2.8225,-2.8227,-2.8228,0,0,0,0,0,0,0,-2.7977,-2.7989,-2.8104,-2.8076,-2.8077,-2.8072,-2.808,-2.8134,-2.8155,-2.8112,-2.8111,-2.812,-2.8177,-2.8198,-2.8204,-2.8289,-2.8222,-2.8226,-2.8229,-2.8231,-2.8439,-2.8441,0,0,0,0,0,0,-2.7972,-2.7985,-2.8102,-2.8107,-2.8023,-2.8077,-2.8085,-2.8114,-2.8155,-2.8159,-2.8122,-2.8119,-2.819,-2.8198,-2.8206,-2.8299,-2.8227,-2.8232,-2.8235,-2.8436,-2.8439,-2.8442,0,0,0,0,0,0,-2.7968,-2.7982,-2.8099,-2.8046,-2.806,-2.8082,-2.8115,-2.8117,-2.8137,-2.8162,-2.8166,-2.8139,-2.8189,-2.8199,-2.8264,-2.8301,-2.8234,-2.8238,-2.8433,-2.8437,-2.8441,-2.8483,0,0,0,0,0,0,-2.7964,-2.7981,-2.801,-2.8046,-2.8063,-2.8156,-2.8117,-2.812,-2.8146,-2.8143,-2.8179,-2.8183,-2.8188,-2.8256,-2.8269,-2.8307,-2.8242,-2.843,-2.8435,-2.844,-2.8478,-2.8488,-2.8496,0,0,0,0,0,-2.7958,-2.8018,-2.8012,-2.8026,-2.81,-2.8158,-2.8167,-2.8173,-2.8149,-2.8179,-2.8195,-2.8182,-2.8295,-2.8263,-2.8277,-2.8317,-2.8428,-2.8434,-2.8439,-2.8474,-2.8486,-2.8496,0,0,0,0,0,0,-2.7984,-2.8022,-2.8016,-2.8089,-2.8121,-2.8155,-2.8192,-2.8185,-2.8222,-2.8218,-2.8222,-2.823,-2.8297,-2.8312,-2.8277,-2.8392,-2.8358,-2.8366,-2.838,-2.8391,-2.8399,-2.8395,-2.8246,0,0,0,0,0,-2.7998,-2.8043,-2.8074,-2.8136,-2.8152,-2.8169,-2.8195,-2.8197,-2.8229,-2.8242,-2.8262,-2.8293,-2.8336,-2.8364,-2.8404,-2.848,-2.8489,-2.8515,-2.8523,-2.853,-2.8538,-2.8582,-2.8594,-2.8461,-2.8461,-2.8461,0,0,-2.8028,-2.8055,-2.8082,-2.8142,-2.8166,-2.8213,-2.818,-2.823,-2.8265,-2.8249,-2.8312,-2.8328,-2.8363,-2.8434,-2.8466,-2.845,-2.8577,-2.8538,-2.8543,-2.8547,-2.8589,-2.8602,-2.8613,-2.8465,-2.8464,-2.8464,0,0,-2.8106,-2.8131,-2.8186,-2.8212,-2.825,-2.8262,-2.8275,-2.8311,-2.8322,-2.8385,-2.8375,-2.8415,-2.8488,-2.8515,-2.8537,-2.8628,-2.8618,-2.8641,-2.8687,-2.873,-2.874,-2.875,-2.8784,-2.8796,-2.8648,-2.8649,-2.8649,0,-2.8138,-2.8209,-2.8215,-2.8267,-2.8294,-2.8283,-2.834,-2.8364,-2.8413,-2.8432,-2.8412,-2.8506,-2.8528,-2.8606,-2.8629,-2.8647,-2.8663,-2.8637,-2.8738,-2.8748,-2.8757,-2.879,-2.8802,-2.8651,-2.8651,-2.8651,-2.865,0,-2.8247,-2.8297,-2.8336,-2.8387,-2.8418,-2.8472,-2.8486,-2.8516,-2.8516,-2.8529,-2.8595,-2.8622,-2.8669,-2.8687,-2.8686,-2.8766,-2.8755,-2.8737,-2.8702,-2.8772,-2.8803,-2.8816,-2.8655,-2.8654,-2.8653,-2.8653,0,0,-2.8344,-2.8398,-2.8413,-2.8437,-2.8479,-2.8517,-2.8571,-2.8618,-2.8646,-2.868,-2.8726,-2.8789,-2.8773,-2.8799,-2.8801,-2.8838,-2.8912,-2.8816,-2.8817,-2.8834,-2.9004,-2.9019,-2.9033,-2.8905,-2.8907,-2.8909,-2.9002,0,-2.8428,-2.8524,-2.8532,-2.8618,-2.8665,-2.8656,-2.8703,-2.8734,-2.8749,-2.879,-2.8805,-2.8851,-2.8825,-2.8841,-2.8877,-2.8895,-2.8946,-2.8888,-2.8948,-2.895,-2.8942,-2.9049,-2.9065,-2.9151,-2.9014,-2.9016,-2.9017,0,-2.8538,-2.8579,-2.8671,-2.8709,-2.8729,-2.8771,-2.8817,-2.8856,-2.8891,-2.8899,-2.893,-2.8927,-2.8983,-2.8945,-2.9022,-2.8983,-2.9008,-2.902,-2.9024,-2.9031,-2.8989,-2.9061,-2.9179,-2.9193,-2.9036,-2.9035,-2.9033,0,-2.8602,-2.8679,-2.8745,-2.8765,-2.8811,-2.8842,-2.8862,-2.8895,-2.8924,-2.8963,-2.8983,-2.9027,-2.9052,-2.9086,-2.9096,-2.9068,-2.9174,-2.9137,-2.9183,-2.9183,-2.9207,-2.9205,-2.9332,-2.9219,-2.9219,-2.9219,-2.9219,0,-2.8696,-2.8753,-2.8775,-2.8816,-2.888,-2.8888,-2.8951,-2.8969,-2.8999,-2.9044,-2.9037,-2.9079,-2.9088,-2.9131,-2.9139,-2.9203,-2.9213,-2.9222,-2.9224,-2.9224,-2.9223,-2.9241,-2.9236,-2.9222,-2.9222,-2.9221,-2.922,0,-2.8779,-2.8795,-2.8867,-2.8906,-2.8917,-2.8963,-2.8995,-2.9034,-2.9048,-2.9104,-2.9118,-2.914,-2.9191,-2.9204,-2.9263,-2.9268,-2.9345,-2.934,-2.9334,-2.9334,-2.9381,-2.9377,-2.9525,-2.9545,-2.9417,-2.9419,-2.942,0,-2.8839,-2.8883,-2.8927,-2.8957,-2.898,-2.9027,-2.9058,-2.9068,-2.91,-2.9145,-2.9179,-2.9229,-2.927,-2.9352,-2.9373,-2.9419,-2.9416,-2.9465,-2.9423,-2.9423,-2.942,-2.9418,-2.9423,-2.9473,-2.9475,-2.9476,-2.9476,0,-2.8944,-2.8951,-2.8995,-2.9044,-2.9081,-2.9119,-2.9156,-2.918,-2.9195,-2.9231,-2.9285,-2.9317,-2.9379,-2.943,-2.9477,-2.9497,-2.949,-2.949,-2.9503,-2.9505,-2.9501,-2.9506,-2.9358,-2.9486,-2.9485,-2.9485,-2.9484,-2.9484,-2.9019,-2.9059,-2.9097,-2.9148,-2.9177,-2.9212,-2.9252,-2.9272,-2.9317,-2.937,-2.9372,-2.9431,-2.9466,-2.9529,-2.9552,-2.9598,-2.9583,-2.9602,-2.9607,-2.9612,-2.9618,-2.9492,-2.9606,-2.9606,-2.9605,-2.9605,-2.9605,0,-2.9126,-2.915,-2.9197,-2.925,-2.929,-2.9281,-2.9322,-2.9356,-2.9408,-2.9442,-2.9484,-2.9546,-2.9595,-2.9621,-2.967,-2.9702,-2.97,-2.9715,-2.9713,-2.9719,-2.9627,-2.9611,-2.9716,-2.9716,-2.9716,-2.9716,-2.9716,-2.9716,-2.9186,-2.9255,-2.9266,-2.9349,-2.9373,-2.9432,-2.9456,-2.9488,-2.9517,-2.9587,-2.9629,-2.9646,-2.9677,-2.9729,-2.9775,-2.9781,-2.98,-2.9817,-2.9822,-2.9736,-2.9725,-2.9714,-2.97,-2.9821,-2.9821,-2.991,-2.9911,-2.9912]}]]